Location: Chandler
(33.3060°N, 111.8410°W)
Time: 12:53:52
(UTC-07:00)

Amateur Radio Satellites - All Passes

Search period start: 31 May 2016 12:23
Search period end: 01 June 2016 12:23
Location: Chandler, 33.3060°N, 111.8410°W

Satellite Date Start Highest point End Downlink Frequencies (MHz)
Time Altitude Azimuth
DX 1 31 May 12:28:55 12:33:14 67° 285° (WNW) 12:37:31 434.975-435.025
CUBEBUG 1 31 May 12:30:54 12:35:06 48° 286° (WNW) 12:39:16 437.445
SPROUT 31 May 12:37:48 12:42:02 71° 101° (ESE) 12:46:16 437.525
ESTCUBE 1 31 May 12:46:26 12:50:01 23° 290° (WNW) 12:53:36 437.505/2401.250
TISAT 1 31 May 12:46:42 12:49:49 20° 96° (E) 12:52:54 437.305
50 SAT 31 May 12:47:54 12:50:45 21° 289° (WNW) 12:53:36 437.505
BUGSAT 1 31 May 12:49:37 12:52:20 17° 265° (W) 12:55:04 437.445
VELOX 1 31 May 12:49:44 12:53:37 31° 288° (WNW) 12:57:30 145.980
JAS-2 31 May 12:55:16 13:02:35 71° 259° (WSW) 13:10:26 435.910
CUSAT 1 31 May 12:56:56 13:00:11 13° 298° (WNW) 13:03:40 437.405
Gurwin Techsat 1B 31 May 13:07:31 13:12:08 31° 70° (ENE) 13:16:46 435.225
UKube-1 31 May 13:10:31 13:14:08 27° 289° (WNW) 13:17:45 .
AO-7 31 May 13:27:05 13:31:02 14° 53° (NE) 13:35:00 29.400- 29.500
AISAT 31 May 13:28:28 13:30:00 12° 294° (WNW) 13:31:31 437.250
DANDE 31 May 13:31:02 13:33:46 13° 299° (WNW) 13:36:47 436.750
AIST 2 31 May 13:36:14 13:38:21 14° 310° (NW) 13:40:29 435.215
Oscar 19 31 May 13:48:53 13:53:41 38° 261° (W) 13:58:32 437.125/150
YUBILEINY 31 May 13:53:06 13:56:36 13° 78° (ENE) 14:00:05 435.215
Cosmos 2491 31 May 13:54:58 14:02:46 35° 75° (ENE) 14:10:28 435.465 / 435.565
SWISSCUBE 31 May 13:56:53 14:00:53 26° 97° (E) 14:04:52 437.505
AO-85 31 May 13:59:30 14:04:00 63° 60° (ENE) 14:08:05 145.980
ITUPSAT 1 31 May 14:05:22 14:09:29 28° 97° (E) 14:13:36 437.325
TISAT 1 31 May 14:21:59 14:25:23 25° 289° (WNW) 14:28:46 437.305
BEESAT 31 May 14:25:32 14:30:11 49° 100° (E) 14:34:48 436.000
RS-15 31 May 14:28:33 14:35:41 19° 99° (E) 14:42:58 29.354- 29.394
ITAMSAT 1 31 May 14:39:40 14:44:49 84° 256° (WSW) 14:50:02 435.822/435.867
Gurwin Techsat 1B 31 May 14:47:37 14:52:01 26° 264° (W) 14:56:25 435.225
AO-7 31 May 15:14:12 15:22:28 78° 71° (ENE) 15:30:47 29.400- 29.500
SWISSCUBE 31 May 15:34:34 15:38:33 26° 290° (WNW) 15:42:31 437.505
ITUPSAT 1 31 May 15:43:18 15:47:09 25° 291° (WNW) 15:51:01 437.325
YUBILEINY 31 May 15:43:19 15:52:01 87° 95° (E) 16:00:45 435.215
KKS-1 31 May 15:46:17 15:50:28 40° 99° (E) 15:54:36 437.445
Cosmos 2491 31 May 15:51:32 15:59:34 43° 272° (W) 16:07:34 435.465 / 435.565
Cosmos 2504 31 May 15:53:39 15:59:03 23° 83° (E) 16:04:38 435.465 / 435.565
BEESAT 31 May 16:04:54 16:07:30 15° 294° (WNW) 16:10:07 436.000
HORYU 2 31 May 16:06:35 16:10:44 42° 73° (ENE) 16:14:54 437.375
STARS 31 May 16:09:48 16:13:50 36° 99° (E) 16:17:50 437.465
MOZHAYETS 4 31 May 16:34:01 16:38:39 72° 284° (WNW) 16:43:16
RS-15 31 May 16:35:08 16:46:23 87° 297° (WNW) 16:58:20 29.354- 29.394
BRITE-PL 31 May 16:36:05 16:39:00 14° 65° (ENE) 16:41:53 437.365/2234.400
CUBESAT XI-V 31 May 16:37:36 16:38:47 11° 92° (E) 16:39:58 437.345
NOAA 18 31 May 16:39:49 16:43:05 16° 64° (ENE) 16:46:23 137.9125
CUTE-I 31 May 16:49:42 16:52:46 16° 65° (ENE) 16:55:51 437.470
PCSat 31 May 16:59:42 17:03:33 19° 53° (NE) 17:07:23 145.827
AO-7 31 May 17:10:39 17:15:51 18° 266° (W) 17:21:06 29.400- 29.500
NOAA 15 31 May 17:21:05 17:26:11 49° 72° (ENE) 17:31:17 137.62
KKS-1 31 May 17:24:10 17:26:38 15° 293° (WNW) 17:29:07 437.445
Cubesat XI-IV 31 May 17:42:23 17:47:31 52° 73° (ENE) 17:52:40 437.490
Cosmos 2504 31 May 17:44:49 17:51:47 51° 281° (W) 17:59:10 435.465 / 435.565
YUBILEINY 31 May 17:45:06 17:49:51 16° 293° (WNW) 17:54:38 435.215
HORYU 2 31 May 17:45:17 17:47:26 13° 266° (W) 17:49:36 437.375
STARS 31 May 17:47:12 17:49:51 16° 292° (WNW) 17:52:30 437.465
PHONESAT 2.4 31 May 17:57:06 17:57:49 11° 141° (SE) 17:58:33 2401.200-2431.200
LilacSat-2 31 May 18:02:44 18:06:31 82° 77° (ENE) 18:10:19 437.200
BRITE-PL 31 May 18:11:08 18:16:46 71° 259° (W) 18:22:27 437.365/2234.400
CUBESAT XI-V 31 May 18:11:51 18:16:28 57° 285° (WNW) 18:21:02 437.345
GOMX 1 31 May 18:12:35 18:17:58 59° 75° (ENE) 18:23:13 467.674
NOAA 18 31 May 18:17:54 18:23:14 56° 259° (WSW) 18:28:35 137.9125
CUTE-I 31 May 18:27:08 18:32:18 55° 260° (W) 18:37:31 437.470
M-CUBED/EXP-1 PRIME 31 May 18:32:46 18:35:00 14° 66° (ENE) 18:37:08 437.505
DOVE 4 31 May 18:38:39 18:43:40 50° 75° (ENE) 18:48:29 437.250
CINEMA 3 31 May 18:38:44 18:40:44 13° 68° (ENE) 18:42:42 145.822/145.860
PCSat 31 May 18:41:58 18:47:13 51° 249° (WSW) 18:52:25 145.827
ISS 31 May 18:48:10 18:51:22 59° 134° (SE) 18:54:35 145.825
O/OREOS (USA 219) 31 May 18:48:23 18:52:51 75° 253° (WSW) 18:57:17 437.305
RS-15 31 May 18:51:46 19:00:44 25° 322° (NW) 19:10:06 29.354- 29.394
CANX-2 31 May 18:53:38 18:56:29 18° 69° (ENE) 18:59:21 2200.000
NOAA 15 31 May 19:02:50 19:06:08 17° 266° (W) 19:09:28 137.62
BEESAT 2 31 May 19:10:36 19:14:02 27° 55° (NE) 19:17:27 435.950
CUTE 1.7 + AOD 2 31 May 19:19:00 19:22:41 31° 73° (ENE) 19:26:25 437.475
AAUSAT CUBESAT 2 31 May 19:23:12 19:25:08 13° 68° (ENE) 19:27:04 437.432
HO-68 31 May 19:23:53 19:30:49 57° 70° (ENE) 19:37:47 435.675
COMPASS 1 31 May 19:24:25 19:27:11 18° 69° (ENE) 19:29:57 437.405
Cubesat XI-IV 31 May 19:24:48 19:27:49 15° 267° (W) 19:30:52 437.490
PHONESAT 2.4 31 May 19:31:02 19:34:10 80° 150° (SSE) 19:37:19 2401.200-2431.200
BEESAT 3 31 May 19:35:46 19:39:43 78° 242° (WSW) 19:43:38 437.485
GONETS M04 31 May 19:42:26 19:47:31 17° 80° (E) 19:52:34
STRAND 1 31 May 19:44:18 19:49:29 86° 103° (ESE) 19:54:39 437.568
AIST 1 31 May 19:46:00 19:49:39 26° 90° (E) 19:53:18
GOMX 1 31 May 19:53:17 19:56:15 15° 268° (W) 19:59:11 467.674
AUBIESAT-1 31 May 19:54:19 19:58:22 62° 254° (WSW) 20:02:09 437.475
M-CUBED/EXP-1 PRIME 31 May 20:05:28 20:09:18 35° 256° (WSW) 20:12:54 437.505
ZACube-1 31 May 20:06:45 20:09:05 15° 69° (ENE) 20:11:25 437.345
CINEMA 3 31 May 20:12:51 20:17:27 51° 260° (W) 20:21:52 145.822/145.860
Cosmos 2499 31 May 20:16:44 20:19:58 13° 79° (E) 20:23:17 435.465 / 435.565
DOVE 4 31 May 20:18:27 20:21:28 15° 266° (W) 20:24:26 437.250
SEEDS 31 May 20:21:00 20:25:06 60° 260° (W) 20:29:15 437.485
AIST 2 31 May 20:23:18 20:24:11 11° 48° (NE) 20:25:04 435.215
ISS 31 May 20:26:17 20:28:04 14° 329° (NNW) 20:29:51 145.825
CANX-2 31 May 20:28:25 20:32:05 29° 263° (W) 20:35:47 2200.000
CUBEBUG 2 31 May 20:30:47 20:35:08 72° 77° (ENE) 20:39:21 437.445
FUNcube-1 31 May 20:40:32 20:44:20 35° 74° (ENE) 20:48:08 145.935
DELFI C3 31 May 20:47:55 20:50:59 22° 71° (ENE) 20:54:05 145.870
BEESAT 2 31 May 20:48:48 20:51:40 19° 250° (WSW) 20:54:30 435.950
UWE-3 31 May 20:49:22 20:53:39 80° 77° (ENE) 20:57:51 435.000/436.395/437.385
CUTE 1.7 + AOD 2 31 May 20:55:53 20:58:34 16° 266° (W) 21:01:15 437.475
AAUSAT CUBESAT 2 31 May 20:56:21 21:00:13 39° 261° (W) 21:04:07 437.432
PRISM 31 May 20:57:20 21:01:30 83° 285° (WNW) 21:05:38 437.425
COMPASS 1 31 May 20:58:53 21:02:29 29° 263° (W) 21:06:08 437.405
PHONESAT 2.4 31 May 21:08:23 21:11:06 26° 348° (NNW) 21:13:50 2401.200-2431.200
HUMSAT D 31 May 21:09:05 21:11:45 17° 69° (ENE) 21:14:26 437.325/437.525
HO-68 31 May 21:13:32 21:18:49 22° 265° (W) 21:24:08 435.675
RS-15 31 May 21:16:49 21:19:57 11° 358° (N) 21:23:07 29.354- 29.394
Oscar 11 31 May 21:17:02 21:21:16 64° 259° (W) 21:25:33 145.826/435.025
AIST 1 31 May 21:23:55 21:27:10 20° 284° (WNW) 21:30:26
GONETS M04 31 May 21:34:24 21:43:13 80° 277° (W) 21:52:00
ZACube-1 31 May 21:41:11 21:45:04 35° 262° (W) 21:48:54 437.345
UNISAT 6 31 May 21:48:18 21:50:55 15° 94° (E) 21:53:33 437.425
CUSAT 1 31 May 21:51:31 21:58:35 58° 78° (ENE) 22:04:06 437.405
TIGRISAT 31 May 21:53:59 21:56:49 17° 95° (E) 21:59:41 435.000
AIST 2 31 May 21:58:57 22:03:04 67° 244° (WSW) 22:07:10 435.215
Cosmos 2499 31 May 22:04:35 22:11:49 81° 277° (W) 22:19:39 435.465 / 435.565
ESTCUBE 1 31 May 22:06:08 22:08:46 15° 67° (ENE) 22:11:24 437.505/2401.250
VELOX 1 31 May 22:09:52 22:10:36 10° 65° (ENE) 22:11:19 145.980
FUNcube-1 31 May 22:18:26 22:20:40 14° 266° (W) 22:22:53 145.935
DELFI C3 31 May 22:22:44 22:25:44 21° 264° (W) 22:28:45 145.870
UKube-1 31 May 22:27:42 22:28:46 11° 65° (ENE) 22:29:50 .
ANTELSAT 31 May 22:27:58 22:32:11 46° 100° (E) 22:36:27 437.575/2403.000
DANDE 31 May 22:28:07 22:36:15 61° 78° (ENE) 22:43:00 436.750
SO-50 31 May 22:41:52 22:46:43 71° 116° (ESE) 22:51:37 436.795
AISAT 31 May 22:43:13 22:47:01 28° 71° (ENE) 22:50:49 437.250
HUMSAT D 31 May 22:43:37 22:47:08 28° 263° (W) 22:50:40 437.325/437.525
PHONESAT 2.4 31 May 22:45:52 22:48:24 22° 5° (N) 22:50:56 2401.200-2431.200
DUCHIFAT 1 31 May 23:02:11 23:04:37 15° 94° (E) 23:07:02 145.980
DX 1 31 May 23:19:55 23:24:13 59° 75° (ENE) 23:28:33 434.975-435.025
50 SAT 31 May 23:20:59 23:24:36 89° 81° (E) 23:28:16 437.505
CUBEBUG 1 31 May 23:22:04 23:26:30 80° 76° (ENE) 23:30:57 437.445
UNISAT 6 31 May 23:23:43 23:27:42 36° 287° (WNW) 23:31:45 437.425
SPROUT 31 May 23:27:25 23:31:11 31° 72° (ENE) 23:34:58 437.525
TIGRISAT 31 May 23:29:39 23:33:32 33° 287° (WNW) 23:37:29 435.000
RS-15 31 May 23:30:34 23:39:38 23° 35° (NE) 23:48:42 29.354- 29.394
CUSAT 1 31 May 23:35:21 23:39:40 18° 279° (W) 23:43:27 437.405
GONETS M04 31 May 23:38:03 23:41:21 12° 295° (WNW) 23:44:40
ESTCUBE 1 31 May 23:40:57 23:45:11 41° 261° (W) 23:49:29 437.505/2401.250
VELOX 1 31 May 23:42:05 23:46:29 61° 259° (W) 23:50:55 145.980
QB50P1 31 May 23:44:29 23:48:38 59° 101° (E) 23:52:46 145.935-145.965
POPSAT HIP 1 31 May 23:44:34 23:48:43 58° 100° (E) 23:52:51 437.405
QB50P2 31 May 23:48:31 23:52:43 72° 102° (ESE) 23:56:55 145.880/145.840
POLYITAN 1 31 May 23:51:00 23:55:13 74° 102° (ESE) 23:59:24 437.675
UKube-1 01 Jun 00:00:02 00:04:17 55° 259° (W) 00:08:33 .
NANOSAT C BR1 01 Jun 00:00:02 00:04:14 90° 90° (E) 00:08:26 145.865
Cosmos 2499 01 Jun 00:04:37 00:06:17 11° 296° (WNW) 00:08:00 435.465 / 435.565
ANTELSAT 01 Jun 00:06:33 00:08:28 13° 293° (WNW) 00:10:25 437.575/2403.000
JAS-2 01 Jun 00:12:07 00:17:19 22° 91° (E) 00:22:05 435.910
DANDE 01 Jun 00:12:21 00:18:13 23° 278° (W) 00:23:26 436.750
AISAT 01 Jun 00:20:01 00:23:25 21° 264° (W) 00:26:50 437.250
PHONESAT 2.4 01 Jun 00:22:26 00:25:31 53° 22° (NNE) 00:28:35 2401.200-2431.200
SO-50 01 Jun 00:25:10 00:27:41 14° 313° (NW) 00:30:13 436.795
BUGSAT 1 01 Jun 00:33:54 00:37:56 85° 280° (W) 00:41:55 437.445
DUCHIFAT 1 01 Jun 00:36:36 00:40:21 33° 287° (WNW) 00:44:06 145.980
SWISSCUBE 01 Jun 00:59:57 01:03:18 19° 68° (ENE) 01:06:39 437.505
SPROUT 01 Jun 01:04:17 01:07:08 17° 265° (W) 01:10:00 437.525
TISAT 1 01 Jun 01:08:31 01:12:41 59° 259° (W) 01:16:51 437.305
ITUPSAT 1 01 Jun 01:08:37 01:12:09 21° 68° (ENE) 01:15:42 437.325
ISS 01 Jun 01:20:16 01:21:51 13° 30° (NNE) 01:23:26 145.825
BEESAT 01 Jun 01:27:59 01:32:15 35° 71° (ENE) 01:36:33 436.000
Gurwin Techsat 1B 01 Jun 01:28:41 01:32:07 17° 94° (E) 01:35:32 435.225
RS-15 01 Jun 01:42:10 01:54:35 76° 60° (ENE) 02:06:47 29.354- 29.394
JAS-2 01 Jun 01:55:53 02:02:43 52° 290° (WNW) 02:08:47 435.910
YUBILEINY 01 Jun 01:59:09 02:07:01 35° 76° (ENE) 02:14:51 435.215
PHONESAT 2.4 01 Jun 01:59:36 02:02:05 22° 215° (SW) 02:04:33 2401.200-2431.200
Oscar 19 01 Jun 02:04:15 02:09:24 78° 284° (WNW) 02:14:30 437.125/150
JUGNU 01 Jun 02:20:56 02:21:54 10° 162° (SSE) 02:22:52 437.505
SWISSCUBE 01 Jun 02:36:28 02:40:48 35° 262° (W) 02:45:09 437.505
KKS-1 01 Jun 02:40:43 02:44:14 23° 70° (ENE) 02:47:44 437.445
ITUPSAT 1 01 Jun 02:45:30 02:49:44 32° 262° (W) 02:54:01 437.325
Cosmos 2491 01 Jun 02:50:23 02:58:39 47° 89° (E) 03:06:54 435.465 / 435.565
ISS 01 Jun 02:55:22 02:58:35 67° 226° (SW) 03:01:49 145.825
ITAMSAT 1 01 Jun 02:56:47 03:01:52 49° 100° (E) 03:06:54 435.822/435.867
STARS 01 Jun 03:03:03 03:06:15 20° 69° (ENE) 03:09:27 437.465
BEESAT 01 Jun 03:06:43 03:10:04 19° 265° (W) 03:13:27 436.000
Gurwin Techsat 1B 01 Jun 03:07:10 03:12:15 47° 287° (WNW) 03:17:17 435.225
AO-7 01 Jun 03:21:08 03:28:30 34° 99° (E) 03:35:49 29.400- 29.500
MOZHAYETS 4 01 Jun 03:31:27 03:35:57 65° 76° (ENE) 03:40:29
Cosmos 2504 01 Jun 03:40:47 03:49:04 48° 79° (E) 03:57:31 435.465 / 435.565
YUBILEINY 01 Jun 03:55:42 04:03:46 43° 272° (W) 04:11:51 435.215
RS-15 01 Jun 03:56:28 04:05:50 27° 258° (WSW) 04:15:08 29.354- 29.394
HORYU 2 01 Jun 04:04:01 04:05:16 11° 93° (E) 04:06:31 437.375
JUGNU 01 Jun 04:06:09 04:10:13 19° 171° (S) 04:14:17 437.505
AO-85 01 Jun 04:08:08 04:13:29 62° 115° (ESE) 04:18:49 145.980
KKS-1 01 Jun 04:16:55 04:20:38 26° 263° (W) 04:24:22 437.445
ITAMSAT 1 01 Jun 04:37:33 04:40:53 17° 294° (WNW) 04:44:12 435.822/435.867
STARS 01 Jun 04:38:33 04:42:23 29° 262° (W) 04:46:13 437.465
Cosmos 2491 01 Jun 04:47:53 04:55:33 33° 285° (WNW) 05:03:16 435.465 / 435.565
CUBESAT XI-V 01 Jun 05:10:27 05:15:07 84° 77° (ENE) 05:19:50 437.345
AO-7 01 Jun 05:13:26 05:21:17 47° 294° (WNW) 05:29:09 29.400- 29.500
Cosmos 2504 01 Jun 05:34:40 05:42:05 33° 274° (W) 05:49:40 435.465 / 435.565
HORYU 2 01 Jun 05:37:44 05:42:03 51° 286° (WNW) 05:46:21 437.375
NOAA 15 01 Jun 05:41:01 05:45:22 26° 97° (E) 05:49:40 137.62
LilacSat-2 01 Jun 05:42:13 05:43:36 12° 93° (E) 05:45:00 437.200
AO-85 01 Jun 05:50:40 05:54:22 18° 310° (NW) 05:58:02 145.980
JUGNU 01 Jun 05:54:08 05:58:36 22° 182° (S) 06:03:05 437.505
Cubesat XI-IV 01 Jun 06:04:09 06:08:50 30° 97° (E) 06:13:28 437.490
SRMSAT 01 Jun 06:09:24 06:13:26 19° 171° (S) 06:17:26 437.500
GOMX 1 01 Jun 06:20:23 06:23:37 20° 94° (E) 06:26:44 467.674
BRITE-PL 01 Jun 06:21:23 06:26:06 54° 99° (E) 06:30:26 437.365/2234.400
DOVE 4 01 Jun 06:43:37 06:46:01 15° 93° (E) 06:48:25 437.250
NOAA 18 01 Jun 06:43:58 06:49:29 89° 104° (ESE) 06:55:00 137.9125
CUTE-I 01 Jun 06:48:12 06:53:35 84° 104° (ESE) 06:58:57 437.470
STRAND 1 01 Jun 06:55:55 07:01:00 80° 75° (ENE) 07:06:07 437.568
HO-68 01 Jun 06:59:54 07:02:08 11° 91° (E) 07:04:21 435.675
LilacSat-2 01 Jun 07:14:33 07:18:00 34° 286° (WNW) 07:21:28 437.200
SO-50 01 Jun 07:18:17 07:21:50 21° 51° (NE) 07:25:17 436.795
O/OREOS (USA 219) 01 Jun 07:18:19 07:21:43 21° 101° (E) 07:25:06 437.305
NOAA 15 01 Jun 07:20:26 07:25:04 32° 290° (WNW) 07:29:41 137.62
AIST 1 01 Jun 07:33:56 07:38:14 65° 83° (E) 07:42:28
PCSat 01 Jun 07:36:20 07:41:16 37° 109° (ESE) 07:46:14 145.827
PRISM 01 Jun 07:42:35 07:46:25 38° 73° (ENE) 07:50:18 437.425
JUGNU 01 Jun 07:43:21 07:46:59 17° 192° (SSW) 07:50:37 437.505
Cubesat XI-IV 01 Jun 07:44:14 07:48:45 28° 291° (WNW) 07:53:16 437.490
M-CUBED/EXP-1 PRIME 01 Jun 07:49:26 07:51:26 15° 101° (E) 07:53:29 437.505
GONETS M04 01 Jun 07:50:16 07:58:24 42° 77° (ENE) 08:06:30
SRMSAT 01 Jun 07:57:28 08:01:58 22° 181° (S) 08:06:28 437.500
GOMX 1 01 Jun 07:57:59 08:01:42 26° 290° (WNW) 08:05:14 467.674
Cosmos 2499 01 Jun 08:00:20 08:07:52 31° 74° (ENE) 08:15:24 435.465 / 435.565
BRITE-PL 01 Jun 08:02:00 08:03:56 12° 296° (WNW) 08:05:49 437.365/2234.400
SEEDS 01 Jun 08:09:16 08:13:00 29° 97° (E) 08:16:42 437.485
CINEMA 3 01 Jun 08:11:39 08:15:40 47° 100° (E) 08:19:43 145.822/145.860
CANX-2 01 Jun 08:16:50 08:21:06 62° 100° (E) 08:25:21 2200.000
DOVE 4 01 Jun 08:20:05 08:23:50 32° 288° (WNW) 08:27:31 437.250
CUBEBUG 2 01 Jun 08:26:22 08:29:26 19° 95° (E) 08:32:33 437.445
NOAA 18 01 Jun 08:28:53 08:29:19 10° 299° (WNW) 08:29:44 137.9125
CUTE-I 01 Jun 08:32:04 08:32:51 10° 298° (WNW) 08:33:37 437.470
AAUSAT CUBESAT 2 01 Jun 08:42:33 08:46:31 40° 99° (E) 08:50:27 437.432
CUTE 1.7 + AOD 2 01 Jun 08:43:03 08:47:20 72° 283° (WNW) 08:51:36 437.475
HO-68 01 Jun 08:43:21 08:50:34 87° 105° (ESE) 08:57:46 435.675
UWE-3 01 Jun 08:43:35 08:46:50 21° 96° (E) 08:50:07 435.000/436.395/437.385
COMPASS 1 01 Jun 08:45:10 08:49:20 57° 100° (E) 08:53:28 437.405
O/OREOS (USA 219) 01 Jun 08:56:55 09:00:53 29° 295° (WNW) 09:04:50 437.305
SO-50 01 Jun 08:58:11 09:02:23 35° 247° (WSW) 09:06:28 436.795
BEESAT 2 01 Jun 09:00:24 09:02:12 13° 108° (ESE) 09:04:00 435.950
Oscar 11 01 Jun 09:08:35 09:12:27 31° 97° (E) 09:16:18 145.826/435.025
AUBIESAT-1 01 Jun 09:11:29 09:14:34 36° 290° (WNW) 09:17:43 437.475
PRISM 01 Jun 09:19:49 09:21:51 13° 266° (W) 09:23:53 437.425
PCSat 01 Jun 09:20:17 09:24:43 25° 305° (NW) 09:29:10 145.827
BEESAT 3 01 Jun 09:22:25 09:26:10 47° 115° (ESE) 09:29:59 437.485
ANTELSAT 01 Jun 09:23:21 09:26:51 24° 71° (ENE) 09:30:19 437.575/2403.000
M-CUBED/EXP-1 PRIME 01 Jun 09:23:32 09:25:58 20° 293° (WNW) 09:28:26 437.505
ZACube-1 01 Jun 09:32:55 09:37:05 55° 100° (E) 09:41:20 437.345
SEEDS 01 Jun 09:45:30 09:48:27 19° 290° (WNW) 09:51:24 437.485
SRMSAT 01 Jun 09:46:45 09:50:30 17° 191° (S) 09:54:15 437.500
GONETS M04 01 Jun 09:47:23 09:54:56 35° 274° (W) 10:02:30
CINEMA 3 01 Jun 09:51:18 09:52:22 11° 293° (WNW) 09:53:27 145.822/145.860
Cosmos 2499 01 Jun 09:52:45 10:01:10 52° 270° (W) 10:09:36 435.465 / 435.565
CUBEBUG 2 01 Jun 10:02:28 10:06:01 27° 288° (WNW) 10:09:37 437.445
DELFI C3 01 Jun 10:03:19 10:07:21 65° 101° (ESE) 10:11:19 145.870
FUNcube-1 01 Jun 10:08:02 10:12:12 57° 285° (WNW) 10:16:26 145.935
UNISAT 6 01 Jun 10:17:58 10:22:18 70° 259° (W) 10:26:34 437.425
AAUSAT CUBESAT 2 01 Jun 10:19:34 10:21:36 13° 292° (WNW) 10:23:38 437.432
UWE-3 01 Jun 10:19:44 10:23:13 25° 288° (WNW) 10:26:44 435.000/436.395/437.385
TIGRISAT 01 Jun 10:23:40 10:27:58 64° 259° (W) 10:32:13 435.000
HUMSAT D 01 Jun 10:30:16 10:34:25 57° 100° (E) 10:38:35 437.325/437.525
QB50P1 01 Jun 10:33:13 10:36:43 26° 71° (ENE) 10:40:12 145.935-145.965
POPSAT HIP 1 01 Jun 10:33:22 10:36:51 25° 71° (ENE) 10:40:19 437.405
HO-68 01 Jun 10:33:33 10:37:19 15° 301° (WNW) 10:41:05 435.675
BEESAT 2 01 Jun 10:35:55 10:39:39 39° 302° (WNW) 10:43:24 435.950
QB50P2 01 Jun 10:37:14 10:40:56 30° 72° (ENE) 10:44:39 145.880/145.840
POLYITAN 1 01 Jun 10:39:43 10:43:26 31° 72° (ENE) 10:47:09 437.675
Oscar 11 01 Jun 10:45:20 10:48:19 18° 291° (WNW) 10:51:19 145.826/435.025
CUSAT 1 01 Jun 10:46:08 10:52:36 74° 95° (E) 11:00:26 437.405
NANOSAT C BR1 01 Jun 10:48:04 10:51:56 36° 73° (ENE) 10:55:48 145.865
50 SAT 01 Jun 10:57:04 10:57:39 10° 93° (E) 10:58:14 437.505
ANTELSAT 01 Jun 11:00:05 11:03:28 22° 264° (W) 11:06:49 437.575/2403.000
BEESAT 3 01 Jun 11:02:21 11:04:07 13° 310° (NW) 11:05:52 437.485
ZACube-1 01 Jun 11:12:14 11:12:53 10° 293° (WNW) 11:13:33 437.345
DX 1 01 Jun 11:13:53 11:16:10 14° 94° (E) 11:18:27 434.975-435.025
CUBEBUG 1 01 Jun 11:15:49 11:18:59 20° 95° (E) 11:22:08 437.445
BUGSAT 1 01 Jun 11:19:24 11:23:14 36° 73° (ENE) 11:27:03 437.445
DUCHIFAT 1 01 Jun 11:23:36 11:27:49 83° 256° (WSW) 11:32:01 145.980
DANDE 01 Jun 11:30:04 11:35:41 78° 96° (E) 11:43:05 436.750
VELOX 1 01 Jun 11:36:36 11:40:36 33° 98° (E) 11:44:34 145.980
ESTCUBE 1 01 Jun 11:37:17 11:41:45 56° 100° (E) 11:46:12 437.505/2401.250
UKube-1 01 Jun 11:51:29 11:55:22 32° 98° (E) 11:59:12 .
AIST 2 01 Jun 11:52:14 11:56:19 70° 116° (ESE) 12:00:26 435.215
JAS-2 01 Jun 12:00:45 12:07:52 50° 70° (ENE) 12:15:21 435.910
QB50P1 01 Jun 12:09:15 12:12:24 20° 264° (W) 12:15:34 145.935-145.965
POPSAT HIP 1 01 Jun 12:09:22 12:12:33 21° 264° (W) 12:15:44 437.405
AISAT 01 Jun 12:13:06 12:17:31 81° 285° (WNW) 12:21:53 437.250
QB50P2 01 Jun 12:13:57 12:16:45 17° 265° (W) 12:19:32 145.880/145.840
POLYITAN 1 01 Jun 12:16:32 12:19:15 17° 265° (W) 12:21:59 437.675
